Tracking 21679 objects as of 31-Oct-2020
HD Live streaming from Space Station
objects crossing your sky now

COSMOS 1417

Track COSMOS 1417 now!
10-day predictions
COSMOS 1417 is classified as:


NORAD ID: 13617
Int'l Code: 1982-102A
Perigee: 961.4 km
Apogee: 1,013.6 km
Inclination: 83.0 °
Period: 104.7 minutes
Semi major axis: 7358 km
RCS: 2.4834 m2 (large)
Launch date: October 19, 1982
Source: Commonwealth of Independent States (former USSR) (CIS)
Launch site: PLESETSK MISSILE AND SPACE COMPLEX (PKMTR)
aabbcc
Your satellite tracking list
Your tracking list is empty




NASA's NSSDC Master Catalog

Two Line Element Set (TLE):
1 13617U 82102A   20304.84194564  .00000075  00000-0  61912-4 0  9996
2 13617  82.9681 337.3733 0035459  49.0148 123.6562 13.75377368908681
Source of the keplerian elements: AFSPC